Thermal, CA

7:10 AM PDT on August 22, 2017 (GMT -0700)
Desert Resorts Regional

Weather History for KTRM - May, 2013

Change the Weather History Date:

Thursday, May 23, 2013

  Actual Average Record
Temperature  
Mean Temperature 80 °F 80 °F  
Max Temperature 95 °F 97 °F 114 °F (2000)
Min Temperature 65 °F 63 °F 56 °F (2010)
Degree Days  
Heating Degree Days 0 0  
Month to date heating degree days 0 0  
Since 1 July heating degree days 1124 1180  
Cooling Degree Days 15 15  
Month to date cooling degree days 342 289  
Year to date cooling degree days 770 545  
Growing Degree Days 28 (Base 50)    
Moisture  
Dew Point 41 °F    
Average Humidity 29    
Maximum Humidity 48    
Minimum Humidity 9    
Precipitation  
Precipitation 0.00 in 0.00 in 0.04 in (2008)
Month to date precipitation 0.00 0.02  
Year to date precipitation 0.44 1.79  
Since 1 July precipitation 2.62  
Snow  
Snow 0.00 in - - ()
Month to date snowfall 0.0  
Year to date snowfall 0.0  
Snow Depth 0.00 in    
Sea Level Pressure  
Sea Level Pressure 29.70 in    
Wind  
Wind Speed 8 mph (NW)    
Max Wind Speed 23 mph    
Max Gust Speed 28 mph    
Visibility 10 miles    
Events      
T = Trace of Precipitation, MM = Missing Value Source: NWS Daily Summary

Daily Weather History Graph

Daily Weather History Graph

Search for Another Location

Airport or City:

Trip Planner

Search our weather history database for the weather conditions in past years. The results will help you decide how hot, cold, wet, or windy it might be!

Date:

Astronomy

May. 23, 2013 Rise Set
Actual Time 5:38 AM PDT 7:44 PM PDT
Civil Twilight 5:10 AM PDT 8:12 PM PDT
Nautical Twilight 4:36 AM PDT 8:46 PM PDT
Astronomical Twilight 4:00 AM PDT 9:23 PM PDT
Moon 6:25 PM PDT (5/23) 4:22 AM PDT (5/23)
Length of Visible Light 15h 01m
Length of Day
14h 05m
Waxing Gibbous, 97% of the Moon is Illuminated
May 23
Waxing Gibbous
May 24
Full
May 31
Last Quarter
Jun 8
New
Jun 16
First Quarter

Hourly Weather History & Observations

Time (PDT) Temp. Dew Point Humidity Pressure Visibility Wind Dir Wind Speed Gust Speed Precip Events Conditions
12:52 AM 71.1 °F 46.0 °F 41% 29.64 in 10.0 mi NNW 20.7 mph 27.6 mph N/A   Clear
1:52 AM 69.1 °F 46.9 °F 45% 29.64 in 10.0 mi NNW 17.3 mph 21.9 mph N/A   Clear
2:52 AM 68.0 °F 46.0 °F 45% 29.65 in 10.0 mi NW 10.4 mph 18.4 mph N/A   Clear
3:52 AM 66.9 °F 46.0 °F 47% 29.66 in 10.0 mi NNW 9.2 mph - N/A   Clear
4:52 AM 66.0 °F 45.0 °F 47% 29.67 in 10.0 mi NW 9.2 mph - N/A   Clear
5:52 AM 64.9 °F 45.0 °F 48% 29.69 in 10.0 mi WNW 9.2 mph - N/A   Clear
6:52 AM 68.0 °F 46.0 °F 45% 29.71 in 10.0 mi NNW 6.9 mph - N/A   Clear
7:52 AM 71.1 °F 45.0 °F 39% 29.73 in 10.0 mi NW 10.4 mph - N/A   Clear
8:52 AM 75.9 °F 44.1 °F 32% 29.75 in 10.0 mi NNW 10.4 mph - N/A   Clear
9:52 AM 78.1 °F 43.0 °F 29% 29.78 in 10.0 mi NW 6.9 mph - N/A   Clear
10:52 AM 82.0 °F 42.1 °F 24% 29.74 in 10.0 mi Variable 5.8 mph - N/A   Clear
11:52 AM 84.0 °F 36.0 °F 18% 29.76 in 10.0 mi Calm Calm - N/A   Clear
12:52 PM 88.0 °F 34.0 °F 15% 29.72 in 10.0 mi Variable 4.6 mph - N/A   Clear
1:52 PM 89.1 °F 33.1 °F 14% 29.70 in 10.0 mi Calm Calm - N/A   Clear
2:52 PM 91.0 °F 27.0 °F 10% 29.68 in 10.0 mi WSW 4.6 mph - N/A   Clear
3:52 PM 93.9 °F 27.0 °F 9% 29.67 in 10.0 mi Variable 5.8 mph 16.1 mph N/A   Clear
4:52 PM 93.0 °F 26.1 °F 9% 29.66 in 10.0 mi NW 11.5 mph 16.1 mph N/A   Clear
5:52 PM 91.9 °F 30.9 °F 11% 29.66 in 10.0 mi North 15.0 mph 19.6 mph N/A   Clear
6:52 PM 87.1 °F 39.9 °F 19% 29.69 in 10.0 mi North 18.4 mph 27.6 mph N/A   Clear
7:52 PM 82.0 °F 44.1 °F 26% 29.69 in 10.0 mi NNW 17.3 mph 23.0 mph N/A   Clear
8:52 PM 79.0 °F 45.0 °F 30% 29.73 in 10.0 mi NNW 17.3 mph 25.3 mph N/A   Clear
9:52 PM 75.9 °F 46.0 °F 35% 29.73 in 10.0 mi NNW 18.4 mph - N/A   Clear
10:52 PM 73.9 °F 46.9 °F 38% 29.76 in 10.0 mi NNW 17.3 mph - N/A   Clear
11:52 PM 73.0 °F 46.9 °F 39% 29.73 in 10.0 mi NNW 13.8 mph - N/A   Clear